Weather History for Milton, FL

Change the Weather History Date:

Friday, August 2, 2013

  Actual Average (KNSE) Record (KNSE)
Temperature  
Mean Temperature 81 °F -  
Max Temperature 91 °F 87 °F 99 °F (2010)
Min Temperature 71 °F 70 °F 71 °F (1996)
Cooling Degree Days 16    
Growing Degree Days 31 (Base 50)    
Moisture  
Dew Point 72 °F    
Average Humidity 86    
Maximum Humidity 96    
Minimum Humidity 55    
Precipitation  
Precipitation 0.04 in - - ()
Sea Level Pressure  
Sea Level Pressure 29.95 in    
Wind  
Wind Speed 1 mph (ENE)    
Max Wind Speed 18 mph    
Max Gust Speed 33 mph    
Visibility 5 miles    
Events Fog , Rain    
Averages and records for this station are not official NWS values.
T = Trace of Precipitation, MM = Missing Value Source: NWS Daily Summary

Daily Weather History Graph

Daily Weather History Graph

Search for Another Location

Airport:

Trip Planner

Search our weather history database for the weather conditions in past years. The results will help you decide how hot, cold, wet, or windy it might be!

Date:

Astronomy

Aug. 02, 2013 Rise Set
Actual Time 6:06 AM CDT 7:41 PM CDT
Civil Twilight 5:40 AM CDT 8:07 PM CDT
Nautical Twilight 5:09 AM CDT 8:38 PM CDT
Astronomical Twilight 4:36 AM CDT 9:11 PM CDT
Moon 2:30 AM CDT (8/2) 4:36 PM CDT (8/2)
Length of Visible Light 14h 27m
Length of Day
13h 35m
Waning Crescent, 15% of the Moon is Illuminated
Aug 2
Waning Crescent
Aug 6
New
Aug 14
First Quarter
Aug 20
Full
Aug 28
Last Quarter

Hourly Weather History & Observations

Time (CDT) Temp. Heat Index Dew Point Humidity Pressure Visibility Wind Dir Wind Speed Gust Speed Precip Events Conditions
12:56 AM 73.0 °F - 71.1 °F 93% 29.91 in 7.0 mi Calm Calm - N/A   Scattered Clouds
1:56 AM 73.0 °F - 71.1 °F 93% 29.89 in 5.0 mi Calm Calm - N/A   Clear
2:05 AM 71.6 °F - 69.8 °F 94% 29.94 in 3.0 mi Calm Calm - N/A   Scattered Clouds
2:11 AM 71.6 °F - 69.8 °F 94% 29.94 in 1.8 mi Calm Calm - N/A   Scattered Clouds
2:21 AM 71.6 °F - 69.8 °F 94% 29.94 in 1.2 mi Calm Calm - N/A   Mostly Cloudy
2:31 AM 73.4 °F - 71.6 °F 94% 29.93 in 2.0 mi Calm Calm - N/A   Scattered Clouds
2:46 AM 71.6 °F - 69.8 °F 94% 29.93 in 3.0 mi Calm Calm - N/A   Partly Cloudy
2:48 AM 71.6 °F - 69.8 °F 94% 29.93 in 1.8 mi Calm Calm - N/A   Scattered Clouds
2:52 AM 71.6 °F - 69.8 °F 94% 29.93 in 0.8 mi Calm Calm - N/A   Mist
2:56 AM 72.0 °F - 70.0 °F 93% 29.89 in 0.8 mi Calm Calm - N/A   Mist
3:00 AM 71.6 °F - 69.8 °F 94% 29.93 in 1.2 mi Calm Calm - N/A   Partly Cloudy
3:07 AM 71.6 °F - 69.8 °F 94% 29.93 in 3.0 mi Calm Calm - N/A   Partly Cloudy
3:19 AM 71.6 °F - 69.8 °F 94% 29.93 in 1.8 mi Calm Calm - N/A   Scattered Clouds
3:29 AM 71.6 °F - 69.8 °F 94% 29.94 in 3.0 mi Calm Calm - N/A   Scattered Clouds
3:42 AM 71.6 °F - 69.8 °F 94% 29.94 in 2.5 mi Calm Calm - N/A   Mostly Cloudy
3:52 AM 71.6 °F - 69.8 °F 94% 29.94 in 0.8 mi Calm Calm - N/A   Mist
3:56 AM 71.1 °F - 70.0 °F 96% 29.90 in 0.8 mi Calm Calm - N/A   Mist
4:05 AM 71.6 °F - 69.8 °F 94% 29.95 in 1.2 mi Calm Calm - N/A   Overcast
4:30 AM 71.6 °F - 69.8 °F 94% 29.96 in 0.5 mi Calm Calm - N/A Fog Fog
4:53 AM 71.6 °F - 69.8 °F 94% 29.96 in 1.2 mi Calm Calm - N/A   Overcast
4:56 AM 71.1 °F - 69.1 °F 93% 29.91 in 1.2 mi Calm Calm - N/A   Overcast
5:12 AM 71.6 °F - 69.8 °F 94% 29.95 in 3.0 mi Calm Calm - N/A   Mostly Cloudy
5:49 AM 73.4 °F - 71.6 °F 94% 29.96 in 1.8 mi Calm Calm - N/A   Overcast
5:56 AM 73.0 °F - 72.0 °F 96% 29.92 in 0.2 mi Calm Calm - N/A Fog Fog
6:28 AM 73.4 °F - 71.6 °F 94% 29.97 in 0.1 mi NNE 3.5 mph - N/A Fog Fog
6:56 AM 75.0 °F - 73.0 °F 94% 29.93 in 0.1 mi NNE 4.6 mph - 0.01 in Fog Fog
7:25 AM 75.2 °F - 73.4 °F 94% 29.99 in 0.2 mi NNE 3.5 mph - N/A Fog Fog
7:56 AM 75.9 °F - 73.9 °F 94% 29.95 in 0.2 mi North 3.5 mph - N/A Fog Fog
8:06 AM 75.2 °F - 73.4 °F 94% 29.99 in 0.5 mi Calm Calm - N/A Fog Fog
8:13 AM 75.2 °F - 73.4 °F 94% 29.99 in 1.0 mi North 4.6 mph - N/A   Overcast
8:19 AM 75.2 °F - 73.4 °F 94% 29.99 in 3.0 mi North 3.5 mph - N/A   Mostly Cloudy
8:47 AM 75.2 °F - 73.4 °F 94% 29.99 in 7.0 mi North 3.5 mph - N/A   Mostly Cloudy
8:56 AM 78.1 °F - 75.0 °F 90% 29.96 in 7.0 mi Calm Calm - N/A   Mostly Cloudy
9:30 AM 80.6 °F 86.2 °F 75.2 °F 84% 29.99 in 10.0 mi Calm Calm - N/A   Mostly Cloudy
9:56 AM 82.9 °F 89.4 °F 73.9 °F 74% 29.96 in 10.0 mi Calm Calm - N/A   Scattered Clouds
10:56 AM 88.0 °F 98.5 °F 75.9 °F 67% 29.96 in 10.0 mi NE 4.6 mph - N/A   Scattered Clouds
11:56 AM 91.0 °F 99.3 °F 73.0 °F 55% 29.97 in 10.0 mi Calm Calm - N/A   Scattered Clouds
12:56 PM 91.0 °F 100.4 °F 73.9 °F 57% 29.96 in 10.0 mi Variable 4.6 mph - N/A   Mostly Cloudy
1:56 PM 91.9 °F 101.3 °F 73.9 °F 55% 29.94 in 10.0 mi Calm Calm - N/A   Mostly Cloudy
2:56 PM 89.1 °F 100.2 °F 75.9 °F 65% 29.92 in 10.0 mi South 8.1 mph - N/A   Mostly Cloudy
3:56 PM 90.0 °F 101.3 °F 75.9 °F 63% 29.91 in 10.0 mi South 8.1 mph - N/A   Mostly Cloudy
4:56 PM 88.0 °F 98.5 °F 75.9 °F 67% 29.91 in 10.0 mi South 8.1 mph - N/A   Mostly Cloudy
5:56 PM 86.0 °F 93.0 °F 73.0 °F 65% 29.92 in 10.0 mi NE 10.4 mph - N/A   Mostly Cloudy
6:06 PM 84.2 °F 89.6 °F 71.6 °F 66% 29.96 in 10.0 mi ENE 18.4 mph 33.4 mph 0.00 in Rain Light Rain
6:22 PM 84.2 °F 90.9 °F 73.4 °F 70% 29.96 in 5.0 mi ESE 11.5 mph 21.9 mph 0.00 in Rain Light Rain
6:51 PM 78.8 °F - 73.4 °F 83% 29.97 in 7.0 mi SSW 6.9 mph - 0.03 in   Mostly Cloudy
6:56 PM 79.0 °F - 72.0 °F 79% 29.93 in 7.0 mi SSW 4.6 mph - 0.03 in   Mostly Cloudy
7:56 PM 80.1 °F 83.8 °F 72.0 °F 76% 29.95 in 10.0 mi SSW 3.5 mph - N/A   Mostly Cloudy
8:56 PM 80.1 °F 84.5 °F 73.9 °F 81% 29.97 in 10.0 mi East 3.5 mph - N/A   Mostly Cloudy
9:56 PM 79.0 °F - 75.0 °F 88% 29.98 in 10.0 mi Calm Calm - N/A   Scattered Clouds
10:56 PM 78.1 °F - 75.0 °F 90% 29.99 in 10.0 mi Calm Calm - N/A   Scattered Clouds
11:56 PM 79.0 °F - 75.0 °F 88% 29.99 in 10.0 mi SSW 3.5 mph - N/A   Clear